Regional Weather Roundup
Issued by NWS

Home | Current Version | Previous Version | Graphics & Text | Print | Product List | Glossary On
Versions: 1 2 3 4 5 6 7 8 9 10 11 12 13 14 15 16 17 18 19 20 21 22 23 24 25 26 27
000
ASUS45 KCYS 140210
RWRWY

WYOMING REGIONAL WEATHER ROUNDUP
NATIONAL WEATHER SERVICE CHEYENNE WY
700 PM MST WED DEC 13 2017

NOTE:  "FAIR" INDICATES FEW OR NO CLOUDS BELOW 12,000 FEET
WITH NO SIGNIFICANT WEATHER AND/OR OBSTRUCTIONS TO VISIBILITY.

WYZ001-140300-
YELLOWSTONE NATIONAL PARK

CITY           SKY/WX    TMP DP  RH WIND       PRES   REMARKS
LK YELLOWSTONE   N/A     18  17  96 CALM      30.23R
W YELLOWSTONE  NOT AVBL

$$
WYZ002>013-054>058-071-098>099-140300-
NORTHERN WYOMING

CITY           SKY/WX    TMP DP  RH WIND       PRES   REMARKS
JACKSON        FLURRIES  25  23  92 N5          N/A  WCI  19
CODY           CLOUDY    30  29  96 SW5       30.23S WCI  25
GREYBULL       CLOUDY    35  31  85 NW18G26   30.18S WCI  24
WORLAND        CLOUDY    34  31  88 NW6       30.20S WCI  29
SHERIDAN       MOCLDY    38  27  64 NW14      30.18R WCI  30
BUFFALO        FAIR      37  21  52 N20       30.14S WCI  27
GILLETTE       CLOUDY    35  19  52 NW13      30.12R WCI  26
HULETT         CLOUDY    34  25  69 NW3       30.12R
NEWCASTLE      FAIR      34  21  60 NW10      30.10R WCI  26

$$
WYZ014>020-022>026-101>103-140300-
CENTRAL WYOMING

CITY           SKY/WX    TMP DP  RH WIND       PRES   REMARKS
BIG PINEY      CLOUDY    29  18  63 N10       30.12S WCI  20
PINEDALE       CLOUDY    30  23  74 NW9       30.11S WCI  22
DUBOIS         CLOUDY    27  25  93 SE12      30.13R WCI  16
LANDER         LGT SNOW  30  28  92 NW5       30.18R FOG     WCI  25
RIVERTON       CLOUDY    29  26  89 N6        30.18R WCI  23
CASPER         LGT SNOW  31  29  92 N7        30.16R FOG     WCI  24
DOUGLAS        CLOUDY    38  18  44 NW15      30.13R WCI  29

$$
WYZ021-027>030-104>119-140300-
SOUTHERN WYOMING

CITY           SKY/WX    TMP DP  RH WIND       PRES   REMARKS
EVANSTON       CLOUDY    29  26  89 SW7       30.15S WCI  22
FORT BRIDGER   CLOUDY    32  29  89 W14       30.16S WCI  22
ROCK SPRINGS   CLOUDY    28  23  81 NE10      30.14R WCI  19
DIXON          CLOUDY    33  25  72 NE12      30.11R WCI  24
RAWLINS        FOG       29  27  92 N9        30.12R VSB 1   WCI  20
SARATOGA       LGT SNOW  28  28 100 CALM      30.11F
LARAMIE        CLOUDY    31  21  66 N12G22    30.08R WCI  22
CHEYENNE       CLOUDY    37  14  38 N8        30.07R WCI  31
TORRINGTON     CLOUDY    39  19  44 N13       30.09R WCI  31
PINE BLUFFS    CLOUDY    37  12  35 MISG      30.07R

$$




USA.gov is the U.S. government's official web portal to all federal, state and local government web resources and services.